DW9161 Weather Reports


Display with metric or nautical units.
time (UTC)temp
F
wind
direction
speed
MPH
gust
MPH
rain 1hr
in
rain 24hr
in
rain mn
in
humidity
%
barometer
mb
20260504050559 62 195 0.0 2.0 0.00 0.00 0.00 48 1006.8
20260504045555 62 195 0.0 2.0 0.00 0.00 0.00 49 1006.9
20260504045033 62 195 1.0 2.0 0.00 0.00 0.00 49 1006.9
20260504044551 62 195 1.0 2.0 0.00 0.00 0.00 49 1006.9
20260504044108 62 195 1.0 2.0 0.00 0.00 0.00 49 1007.0
20260504043543 62 195 1.0 2.0 0.00 0.00 0.00 50 1007.2
20260504043037 62 195 1.0 2.0 0.00 0.00 0.00 49 1007.3
20260504042534 62 195 1.0 2.0 0.00 0.00 0.00 50 1007.3
20260504042050 62 195 1.0 2.0 0.00 0.00 0.00 50 1007.3
20260504041546 62 195 1.0 2.0 0.00 0.00 0.00 47 1007.3
20260504041044 62 195 0.0 1.0 0.00 0.00 0.00 48 1007.4
20260504040553 63 195 0.0 1.0 0.00 0.00 0.00 47 1007.4
20260504040051 63 195 0.0 1.0 0.00 0.00 0.00 48 1007.4
20260504035546 63 195 0.0 0.0 0.00 0.00 0.00 47 1007.5
20260504035042 64 195 0.0 0.0 0.00 0.00 0.00 47 1007.5
20260504034538 64 195 0.0 5.0 0.00 0.00 0.00 46 1007.6
20260504034039 65 195 1.0 5.0 0.00 0.00 0.00 45 1007.6
20260504033554 65 195 0.0 0.0 0.00 0.00 0.00 43 1007.6
20260504033049 65 195 0.0 2.0 0.00 0.00 0.00 44 1007.7
20260504032544 65 195 0.0 2.0 0.00 0.00 0.00 43 1007.7
20260504032100 65 195 1.0 2.0 0.00 0.00 0.00 42 1007.7
20260504031535 66 195 0.0 1.0 0.00 0.00 0.00 42 1007.8
20260504031051 65 195 0.0 1.0 0.00 0.00 0.00 41 1007.8
20260504030619 65 195 0.0 1.0 0.00 0.00 0.00 42 1007.8
20260504030034 65 195 0.0 1.0 0.00 0.00 0.00 42 1007.9
20260504025550 65 195 0.0 1.0 0.00 0.00 0.00 43 1007.9
20260504025046 65 195 0.0 1.0 0.00 0.00 0.00 43 1007.9
20260504024540 65 195 1.0 1.0 0.00 0.00 0.00 44 1007.9
20260504024036 65 195 1.0 1.0 0.00 0.00 0.00 43 1007.9
20260504023533 66 195 0.0 1.0 0.00 0.00 0.00 43 1008.0
20260504023048 66 195 0.0 0.0 0.00 0.00 0.00 43 1008.0
20260504022545 66 195 0.0 1.0 0.00 0.00 0.00 43 1008.1
20260504022042 66 195 1.0 1.0 0.00 0.00 0.00 43 1008.0
20260504021538 66 195 0.0 2.0 0.00 0.00 0.00 43 1008.1
20260504021036 66 195 1.0 2.0 0.00 0.00 0.00 43 1008.0
20260504020623 66 195 0.0 1.0 0.00 0.00 0.00 41 1008.2
20260504020041 66 195 0.0 0.0 0.00 0.00 0.00 41 1008.3
20260504015556 67 195 0.0 0.0 0.00 0.00 0.00 41 1008.2
20260504015033 67 195 0.0 1.0 0.00 0.00 0.00 41 1008.3
20260504014533 68 195 0.0 1.0 0.00 0.00 0.00 40 1008.3
20260504014050 68 195 0.0 1.0 0.00 0.00 0.00 39 1008.2
20260504013607 69 195 0.0 2.0 0.00 0.00 0.00 38 1008.2
20260504013043 69 195 1.0 2.0 0.00 0.00 0.00 38 1008.2
20260504012049 70 195 1.0 3.0 0.00 0.00 0.00 37 1008.3
20260504011544 70 195 1.0 3.0 0.00 0.00 0.00 37 1008.3
20260504011059 70 195 2.0 3.0 0.00 0.00 0.00 37 1008.3
20260504010605 70 195 1.0 5.0 0.00 0.00 0.00 37 1008.3
20260504010043 71 195 3.0 6.0 0.00 0.00 0.00 36 1008.4
20260504005538 71 195 3.0 6.0 0.00 0.00 0.00 36 1008.5
20260504005035 71 193 3.0 7.0 0.00 0.00 0.00 35 1008.4
20260504004549 71 193 3.0 6.0 0.00 0.00 0.00 35 1008.5
20260504004043 72 207 3.0 5.0 0.00 0.00 0.00 36 1008.5
20260504003539 72 210 3.0 4.0 0.00 0.00 0.00 35 1008.5
20260504003033 72 209 3.0 4.0 0.00 0.00 0.00 35 1008.5
20260504002549 72 209 2.0 5.0 0.00 0.00 0.00 35 1008.5
20260504002043 73 208 3.0 7.0 0.00 0.00 0.00 35 1008.6
20260504001538 73 196 3.0 7.0 0.00 0.00 0.00 34 1008.6
20260504001055 73 212 3.0 6.0 0.00 0.00 0.00 35 1008.7
20260504000603 73 205 4.0 6.0 0.00 0.00 0.00 34 1008.7
20260504000044 73 194 3.0 6.0 0.00 0.00 0.00 35 1008.7
20260503235540 74 198 3.0 7.0 0.00 0.00 0.00 34 1008.7
20260503235038 74 198 4.0 7.0 0.00 0.00 0.00 34 1008.7
20260503234533 74 186 3.0 7.0 0.00 0.00 0.00 34 1008.8
20260503234047 75 203 3.0 7.0 0.00 0.00 0.00 34 1008.7
20260503233543 75 198 3.0 8.0 0.00 0.00 0.00 33 1008.8
20260503233039 75 195 2.0 8.0 0.00 0.00 0.00 32 1008.9
20260503232536 76 208 4.0 7.0 0.00 0.00 0.00 33 1008.9
20260503232032 76 197 3.0 5.0 0.00 0.00 0.00 29 1009.0
20260503231609 76 233 1.0 5.0 0.00 0.00 0.00 30 1008.9
20260503231043 76 248 1.0 2.0 0.00 0.00 0.00 31 1009.0
20260503230551 76 248 1.0 3.0 0.00 0.00 0.00 32 1009.0
20260503230048 75 248 1.0 5.0 0.00 0.00 0.00 32 1009.0
20260503225545 75 248 3.0 5.0 0.00 0.00 0.00 31 1009.0
20260503225040 75 303 2.0 4.0 0.00 0.00 0.00 30 1008.9
20260503224555 75 267 2.0 7.0 0.00 0.00 0.00 31 1009.0
20260503224050 75 347 4.0 7.0 0.00 0.00 0.00 32 1009.1
20260503223545 75 269 4.0 6.0 0.00 0.00 0.00 31 1009.1
20260503223040 75 183 1.0 4.0 0.00 0.00 0.00 33 1009.1
20260503222540 75 170 1.0 5.0 0.00 0.00 0.00 31 1009.0
20260503222036 75 190 4.0 5.0 0.00 0.00 0.00 32 1009.1
20260503221628 75 1 1.0 4.0 0.00 0.00 0.00 32 1009.0
20260503221042 75 1 2.0 9.0 0.00 0.00 0.00 32 1009.1
20260503220611 75 1 2.0 9.0 0.00 0.00 0.00 34 1009.1
20260503220048 75 266 1.0 7.0 0.00 0.00 0.00 31 1009.2
20260503215543 75 308 5.0 7.0 0.00 0.00 0.00 34 1009.5
20260503215100 75 334 4.0 6.0 0.00 0.00 0.00 31 1009.5
20260503214555 75 330 2.0 4.0 0.00 0.00 0.00 33 1009.5
20260503214050 75 225 2.0 6.0 0.00 0.00 0.00 33 1009.5
20260503213608 75 297 1.0 8.0 0.00 0.00 0.00 32 1009.7
20260503213042 75 281 5.0 8.0 0.00 0.00 0.00 32 1009.6
20260503212536 74 338 2.0 7.0 0.00 0.00 0.00 34 1009.8
20260503212032 74 337 4.0 11.0 0.00 0.00 0.00 32 1010.0
20260503211038 75 341 4.0 8.0 0.00 0.00 0.00 32 1010.0
20260503210607 75 276 2.0 8.0 0.00 0.00 0.00 31 1010.0
20260503210044 75 6 3.0 8.0 0.00 0.00 0.00 34 1010.1
20260503205540 75 308 2.0 7.0 0.00 0.00 0.00 31 1010.3
20260503205035 75 283 1.0 7.0 0.00 0.00 0.00 32 1010.3
20260503204532 75 227 3.0 7.0 0.00 0.00 0.00 32 1010.4
20260503204049 74 244 3.0 7.0 0.00 0.00 0.00 33 1010.4
20260503203544 74 316 4.0 7.0 0.00 0.00 0.00 33 1010.5
20260503203059 75 322 3.0 10.0 0.00 0.00 0.00 33 1010.5
20260503202535 74 1 4.0 12.0 0.00 0.00 0.00 34 1010.6
20260503202032 73 309 4.0 10.0 0.00 0.00 0.00 33 1010.7
20260503201548 73 352 5.0 10.0 0.00 0.00 0.00 32 1010.8
20260503201044 73 313 5.0 11.0 0.00 0.00 0.00 32 1010.8
20260503200553 73 332 7.0 10.0 0.00 0.00 0.00 33 1010.7
20260503200051 73 288 5.0 9.0 0.00 0.00 0.00 33 1010.8
20260503195608 72 355 5.0 9.0 0.00 0.00 0.00 33 1010.9
20260503195042 73 281 6.0 9.0 0.00 0.00 0.00 33 1010.9
20260503194043 73 316 4.0 12.0 0.00 0.00 0.00 33 1010.8
20260503193538 73 304 4.0 13.0 0.00 0.00 0.00 31 1011.0
20260503193116 73 286 7.0 13.0 0.00 0.00 0.00 32 1011.0
20260503192546 73 314 6.0 11.0 0.00 0.00 0.00 35 1011.0
20260503192041 73 352 6.0 11.0 0.00 0.00 0.00 32 1011.0
20260503191538 73 341 5.0 13.0 0.00 0.00 0.00 33 1011.1
20260503191033 73 326 4.0 13.0 0.00 0.00 0.00 33 1011.0
20260503190600 73 349 6.0 11.0 0.00 0.00 0.00 33 1011.1
20260503190035 73 1 3.0 11.0 0.00 0.00 0.00 35 1011.2
20260503185533 73 328 4.0 13.0 0.00 0.00 0.00 33 1011.2
20260503185048 73 330 5.0 13.0 0.00 0.00 0.00 33 1011.2
20260503184545 73 333 4.0 10.0 0.00 0.00 0.00 33 1011.2
20260503184040 73 315 5.0 13.0 0.00 0.00 0.00 34 1011.2
20260503183537 72 354 4.0 13.0 0.00 0.00 0.00 36 1011.3
20260503183032 72 335 6.0 11.0 0.00 0.00 0.00 33 1011.4
20260503182610 72 319 4.0 11.0 0.00 0.00 0.00 34 1011.4
20260503182043 72 359 6.0 11.0 0.00 0.00 0.00 32 1011.5
20260503181541 73 303 5.0 9.0 0.00 0.00 0.00 34 1011.6
20260503181037 73 314 5.0 8.0 0.00 0.00 0.00 35 1011.6
20260503180608 72 321 1.0 8.0 0.00 0.00 0.00 35 1011.6
20260503180042 71 345 3.0 8.0 0.00 0.00 0.00 34 1011.7
20260503175537 71 328 3.0 8.0 0.00 0.00 0.00 32 1011.7
20260503175033 71 307 3.0 8.0 0.00 0.00 0.00 35 1011.9
20260503174548 71 359 3.0 12.0 0.00 0.00 0.00 36 1011.9
20260503174044 71 319 6.0 12.0 0.00 0.00 0.00 34 1012.0
20260503173539 71 345 6.0 12.0 0.00 0.00 0.00 34 1012.0
20260503173035 71 351 5.0 11.0 0.00 0.00 0.00 34 1012.0
20260503172531 71 319 4.0 11.0 0.00 0.00 0.00 34 1012.0
20260503172108 70 293 4.0 9.0 0.00 0.00 0.00 36 1012.0
20260503171544 70 349 4.0 9.0 0.00 0.00 0.00 38 1012.0
20260503171040 70 354 3.0 9.0 0.00 0.00 0.00 42 1012.1
20260503170629 70 339 3.0 5.0 0.00 0.00 0.00 39 1012.1
20260503150559 61 337 3.0 7.0 0.00 0.00 0.00 49 1012.1
20260503131038 56 224 2.0 7.0 0.00 0.00 0.00 55 1011.7
20260503130607 56 233 3.0 7.0 0.00 0.00 0.00 54 1011.7
20260503110556 55 264 2.0 3.0 0.00 0.00 0.00 50 1011.1
20260503081038 52 199 4.0 7.0 0.00 0.00 0.00 54 1011.4
20260503080606 52 198 3.0 6.0 0.00 0.00 0.00 54 1011.5
20260503072531 53 204 4.0 8.0 0.00 0.00 0.00 52 1011.7
20260503072111 53 169 4.0 8.0 0.00 0.00 0.00 52 1011.8
20260503071548 53 200 5.0 10.0 0.00 0.00 0.00 51 1011.8
20260503071044 53 188 5.0 10.0 0.00 0.00 0.00 51 1011.8
20260503070552 53 198 4.0 7.0 0.00 0.00 0.00 51 1011.9